Volver al catálogo

STARLINK-32553

ActivoComunicacionesVLEO
NORAD 62071·PAYLOAD·🇺🇸 United States

Lanzado Nov 24, 2024 desde Vandenberg Space Force Base

Loading…

Próximos Pases (próximas 24 horas)

TLE

ActualizadoSource: CelesTrak SupGP

Época: Sep 15, 2026, 03:24 UTC

1 62071C 24217Q   26258.14215278 -.00038045  00000+0 -11255-2 0  2580
2 62071  53.1589  30.5700 0001069  96.5506 293.9510 15.34368544    14

Sigue STARLINK-32553 en tiempo real con AllMySat

Download on the App Store